User: anonymous   Login
Location: Bluff Heights
(33.7692°N, 118.1592°W)
Time: 10:58:28
(UTC+00:00)
Language:

FO-99 - Orbit

View from above orbital plane
View from above orbital plane
View from above satellite
View from above satellite

Ground track
Ground track

The orbit data is extracted from the following two-line orbital elements,

1 43937U 19003F   21263.53623510  .00002334  00000-0  92215-4 0  9993
2 43937  97.1685 302.8904 0023911  39.0998 321.1964 15.26209045148760
Epoch (UTC): 20 September 2021 12:52:10
Eccentricity: 0.0023911
inclination: 97.1685°
perigee height: 471 km
apogee height: 503 km
right ascension of ascending node: 302.8904°
argument of perigee: 39.0998°
revolutions per day: 15.26209045
mean anomaly at epoch: 321.1964°
orbit number at epoch: 14876

The dashed part of the orbit path shows where the satellite is in the earth's shadow,  

DLR